Regional Weather Roundup
Issued by NWS Portland, ME

Current Version | Previous Version | Text Only | Print | Product List | Glossary Off
Versions: 1 2 3 4 5 6 7 8 9 10 11 12 13 14 15 16 17 18 19 20 21 22 23 24 25 26 27 28 29 30 31 32 33 34 35 36 37 38 39 40 41 42 43 44 45 46 47 48 49 50
122 ASUS41 KGYX 261005 RWRGYX WEATHER ROUNDUP FOR MAINE AND NEW HAMPSHIRE NATIONAL WEATHER SERVICE GRAY ME 600 AM EDT FRI MAY 26 2017 MEZ002-005-006-010-012-015-018-020-021-024-026-027-029-261100- MAINE CITY SKY/WX TMP DP RH WIND PRES REMARKS PORTLAND RAIN 48 46 93 NE15 29.57F FOG SANFORD LGT RAIN 48 47 96 NE15G23 29.53F BAR HARBOR RAIN 48 46 93 E12G24 29.65R FOG WISCASSET HVY RAIN 49 47 93 NE7 29.63S FOG ROCKLAND HVY RAIN 47 46 97 NE16G25 29.60F FOG FRYEBURG HVY RAIN 49 49 100 N6 29.63S FOG LEWISTONAUBURN HVY RAIN 49 48 97 NE9 29.63S FOG AUGUSTA HVY RAIN 48 46 93 N8 29.65S FOG WATERVILLE HVY RAIN 47 46 97 N7 29.63R FOG BANGOR TSTM 48 47 96 NE14 29.64F FOG GREENVILLE N/A 47 46 97 E9G17 29.65F MILLINOCKET LGT RAIN 47 47 100 NE10G17 29.74F FOG HOULTON CLOUDY 48 43 82 NE9 29.76F PRESQUE ISLE CLOUDY 48 41 76 NE12 29.80F FRENCHVILLE CLOUDY 46 35 65 NE14G22 29.81F CARIBOU CLOUDY 49 40 71 NE7 29.79F $$ NHZ002-005-008-009-011-012-014-261100- NEW HAMPSHIRE CITY SKY/WX TMP DP RH WIND PRES REMARKS PORTSMOUTH CLOUDY 48 45 91 NE15G21 29.49F ROCHESTER LGT RAIN 48 45 89 NE12G28 29.49F NASHUA CLOUDY 49 47 93 N5 29.51S MANCHESTER CLOUDY 50 45 83 NE13 29.49R CONCORD LGT RAIN 50 47 89 N13G22 29.49F LACONIA RAIN 49 48 97 NE17G25 29.54F FOG PLYMOUTH RAIN 50 49 95 CALM 29.56F BERLIN RAIN 49 46 90 CALM 29.63F FOG WHITEFIELD RAIN 50 45 83 E12G20 29.58F JAFFREY LGT RAIN 48 48 100 MISG 29.50S KEENE LGT RAIN 50 48 93 NW5 29.50 LEBANON LGT RAIN 52 50 93 N6 29.52F FOG MT WASHINGTON RAIN 34 34 100 SE16 N/A VSB 3/16 $$ VTZ005-007-008-261100- VERMONT CITY SKY/WX TMP DP RH WIND PRES REMARKS ST JOHNSBURY N/A 50 49 96 MISG 29.55F MONTPELIER RAIN 50 50 100 NW3 29.59S VSB 1 BURLINGTON CLOUDY 55 54 96 CALM 29.55F $$ MAZ007-012-024-CTZ003-RIZ002-NYZ038-NYZ072-261100- SOUTHERN NEW ENGLAND AND NY CITY SKY/WX TMP DP RH WIND PRES REMARKS BOSTON CLOUDY 49 48 97 N10 29.50R WORCESTER LGT RAIN 46 44 93 NE9 29.49S NANTUCKET PTCLDY 54 52 93 S13 29.49S PROVIDENCE LGT RAIN 50 50 100 N7 29.48S FOG HARTFORD RAIN 50 50 100 N7 29.51S FOG ALBANY LGT RAIN 53 50 89 N5 29.54R NEW YORK CITY LGT RAIN 57 55 93 NW7 29.52R FOG $$ ANZ081-ANZ082-ANZ150-NHZ014-MEZ023>029-261100- COASTAL MARINE OBSERVATIONS STATION/POSITION TIME TEMP WIND PRES WAVE AIR SEA DIR/SP/G HT/PER (UTC) (F) (DEG/KT/KT) (MB) (FT/S) MOUNT DESERT ROC 1000 45 1001.6R MATINICUS ROCK 0900 45 80/ 32/ 36 1000.5R ISLE OF SHOALS 0900 47 20/ 35/ 42 997.8F JEFFREYS LEDGE 0936 48 N/A 8/ 8 CASHES LEDGE BUO 0850 47 47 999.2 9/ 8 GEORGES BANK BUO 0850 53 45 1002.3 9/ 9 $$ .............KEY.............. WCI - WIND CHILL TC - TEMPERATURE IN CELSIUS VSB - VISIBILITY IN MILES HX - HEAT INDEX FAIR- INDICATES FEW OR NO CLOUDS BELOW 12,000 FT, WITH NO SIGNIFICANT WEATHER AND/OR OBSTRUCTIONS TO VISIBILITY.

USA.gov is the U.S. government's official web portal to all federal, state and local government web resources and services.